User: anonymous   Login
Location: Congrier
(47.8099°N, 1.1170°W)
Time: 13:53:59
(UTC+00:00)
Language:

NOAA 16 DEB - Orbit

View from above orbital plane
View from above orbital plane
View from above satellite
View from above satellite

Ground track
Ground track

The orbit data is extracted from the following two-line orbital elements,

1 41510U 00055MJ  24053.46535638  .00003604  00000-0  17476-2 0  9995
2 41510  98.7840 137.0119 0025966 299.0078  60.8495 14.18819849408944
Epoch (UTC): 22 February 2024 11:10:06
Eccentricity: 0.0025966
inclination: 98.7840°
perigee height: 810 km
apogee height: 848 km
right ascension of ascending node: 137.0119°
argument of perigee: 299.0078°
revolutions per day: 14.18819849
mean anomaly at epoch: 60.8495°
orbit number at epoch: 40894

The dashed part of the orbit path shows where the satellite is in the earth's shadow,  

DLR